sat.trackr.live / text

‹ back to catalog

STARLINK-36386

NORAD 68612 · 2026-073L

PAYLOAD ACTIVE UNKNOWN

§ Identity

Operator
Country
US
Launch date
2026-04-07
Launch site
AFWTR
Launch vehicle
Mass (kg)
RCS (m²)

Purposes: comms

External: N2YO · Heavens-Above · Gunter

§ Orbital elements

Epoch: 2026-09-20T00:19:34.032576Z

Period
93.90 min
Inclination
97.2855°
Eccentricity
0.0001486
Mean motion
15.33466481 rev/d
Perigee alt
464.5 km
Apogee alt
466.5 km
Semi-major
6,843.6 km
B*
2.2717e-4
RAAN
101.0009°
Arg perigee
94.4070°
Mean anomaly
265.7342°
Rev number
2,566

§ Raw data

STARLINK-363861 68612U 26073L   26263.01358834  .00007271  00000+0  22717-3 0  99902 68612  97.2855 101.0009 0001486  94.4070 265.7342 15.33466481 25664

JSON: /api/v1/satellites/68612 · /tle

For live sub-satellite position, see the globe view (requires WebGL).

§ Visibility from observer

Set your observer location to see the next 7 days of passes ≥ 10°. The values pass through the URL so the page stays shareable.

No JS? Fill the form by hand. The geolocation button needs JavaScript.